Weather History for Saranac Lake, NY

Change the Weather History Date:

Friday, April 5, 2013

  Actual Average Record
Temperature  
Mean Temperature 30 °F 33 °F  
Max Temperature 37 °F 45 °F 66 °F (1981)
Min Temperature 23 °F 22 °F -2 °F (1954)
Degree Days  
Heating Degree Days 35 32  
Month to date heating degree days 189 163  
Since 1 July heating degree days 7707 8125  
Cooling Degree Days 0 0  
Month to date cooling degree days 0 0  
Year to date cooling degree days 0 0  
Moisture  
Dew Point 23 °F    
Average Humidity 65    
Maximum Humidity 82    
Minimum Humidity 47    
Precipitation  
Precipitation 0.01 in 0.09 in 0.62 in (1987)
Month to date precipitation 0.01 0.47  
Year to date precipitation 2.75 6.49  
Sea Level Pressure  
Sea Level Pressure 29.83 in    
Wind  
Wind Speed 6 mph (West)    
Max Wind Speed 13 mph    
Max Gust Speed 23 mph    
Visibility 7 miles    
Events Fog , Snow    
T = Trace of Precipitation, MM = Missing Value Source: NWS Daily Summary

Daily Weather History Graph

Daily Weather History Graph

Search for Another Location

Airport:

Trip Planner

Search our weather history database for the weather conditions in past years. The results will help you decide how hot, cold, wet, or windy it might be!

Date:

Astronomy

Apr. 05, 2013 Rise Set
Actual Time 6:30 AM EDT 7:29 PM EDT
Civil Twilight 6:00 AM EDT 7:59 PM EDT
Nautical Twilight 5:25 AM EDT 8:34 PM EDT
Astronomical Twilight 4:48 AM EDT 9:11 PM EDT
Moon 3:46 AM EDT (4/5) 2:40 PM EDT (4/5)
Length of Visible Light 13h 58m
Length of Day
12h 59m
Waning Crescent, 24% of the Moon is Illuminated
Apr 5
Waning Crescent
Apr 10
New
Apr 18
First Quarter
Apr 25
Full
May 2
Last Quarter

Hourly Weather History & Observations

Time (EDT) Temp. Windchill Dew Point Humidity Pressure Visibility Wind Dir Wind Speed Gust Speed Precip Events Conditions
12:51 AM 27.0 °F - 21.0 °F 78% 29.87 in 10.0 mi Calm Calm - N/A   Clear
1:51 AM 28.0 °F - 21.0 °F 75% 29.86 in 10.0 mi Calm Calm - N/A   Clear
2:51 AM 28.9 °F - 19.0 °F 67% 29.83 in 10.0 mi Calm Calm - N/A   Clear
3:51 AM 32.0 °F - 18.0 °F 56% 29.81 in 10.0 mi Calm Calm - N/A   Clear
4:51 AM 27.0 °F - 18.0 °F 69% 29.82 in 10.0 mi Calm Calm - N/A   Clear
5:51 AM 25.0 °F - 19.0 °F 78% 29.82 in 10.0 mi Calm Calm - N/A   Scattered Clouds
6:51 AM 32.0 °F 26.4 °F 16.0 °F 52% 29.80 in 10.0 mi SW 5.8 mph - N/A   Overcast
7:51 AM 34.0 °F 28.8 °F 15.1 °F 46% 29.81 in 10.0 mi WSW 5.8 mph - N/A   Overcast
8:37 AM 33.8 °F 25.8 °F 19.4 °F 56% 29.78 in 7.0 mi West 10.4 mph 17.3 mph 0.00 in Snow Light Snow
8:51 AM 33.1 °F 26.1 °F 21.9 °F 64% 29.83 in 8.0 mi WSW 8.1 mph 17.3 mph 0.00 in Snow Light Snow
9:36 AM 32.0 °F 26.4 °F 24.8 °F 75% 29.78 in 10.0 mi West 5.8 mph - 0.00 in   Overcast
9:51 AM 32.0 °F 24.2 °F 26.1 °F 79% 29.84 in 10.0 mi West 9.2 mph - 0.00 in   Overcast
10:51 AM 32.0 °F 27.5 °F 27.0 °F 82% 29.85 in 4.0 mi West 4.6 mph - 0.00 in Snow Light Snow
11:08 AM 32.0 °F 24.8 °F 26.6 °F 80% 29.79 in 2.0 mi West 8.1 mph - 0.00 in Snow Light Snow
11:22 AM 33.8 °F 28.6 °F 28.4 °F 81% 29.79 in 4.0 mi Variable 5.8 mph - 0.00 in Snow Light Snow
11:38 AM 33.8 °F 27.7 °F 28.4 °F 81% 29.79 in 7.0 mi NW 6.9 mph - 0.00 in   Overcast
11:47 AM 33.8 °F 27.7 °F 26.6 °F 75% 29.79 in 6.0 mi West 6.9 mph - 0.00 in Snow Light Snow
11:51 AM 33.1 °F 27.7 °F 26.1 °F 75% 29.85 in 4.0 mi West 5.8 mph - 0.00 in Snow Light Snow
12:51 PM 34.0 °F 28.0 °F 26.1 °F 73% 29.85 in 4.0 mi Variable 6.9 mph - 0.00 in Snow Light Snow
1:34 PM 33.8 °F 25.3 °F 26.6 °F 75% 29.79 in 1.8 mi WNW 11.5 mph 19.6 mph 0.00 in Snow Light Snow
1:37 PM 33.8 °F 28.6 °F 26.6 °F 75% 29.79 in 0.8 mi Variable 5.8 mph 19.6 mph 0.00 in Snow Light Snow
1:51 PM 34.0 °F 31.0 °F 28.9 °F 82% 29.84 in 1.5 mi Variable 3.5 mph - 0.00 in Snow Light Snow
1:53 PM 35.6 °F 32.8 °F 30.2 °F 81% 29.79 in 3.0 mi Variable 3.5 mph - 0.00 in Snow Light Snow
2:03 PM 33.8 °F 25.8 °F 26.6 °F 75% 29.79 in 0.8 mi WNW 10.4 mph 19.6 mph 0.01 in Snow Light Snow
2:06 PM 30.2 °F 22.6 °F 26.6 °F 86% 29.79 in 0.2 mi WNW 8.1 mph 19.6 mph 0.01 in Fog , Snow Snow
2:16 PM 30.2 °F 26.7 °F 28.4 °F 93% 29.79 in 0.5 mi Variable 3.5 mph - 0.01 in Fog , Snow Light Snow
2:24 PM 32.0 °F 25.6 °F 26.6 °F 80% 29.79 in 2.0 mi Variable 6.9 mph - 0.01 in Snow Light Snow
2:28 PM 32.0 °F 25.6 °F 26.6 °F 80% 29.79 in 3.0 mi Variable 6.9 mph - 0.01 in Snow Light Snow
2:51 PM 34.0 °F 28.0 °F 26.1 °F 73% 29.84 in 7.0 mi Variable 6.9 mph - 0.01 in   Overcast
3:09 PM 33.8 °F 27.0 °F 24.8 °F 70% 29.79 in 2.5 mi NW 8.1 mph 16.1 mph 0.00 in Snow Light Snow
3:18 PM 33.8 °F 28.6 °F 26.6 °F 75% 29.79 in 3.0 mi Variable 5.8 mph - 0.00 in Snow Light Snow
3:51 PM 33.1 °F 24.9 °F 24.1 °F 70% 29.84 in 8.0 mi NW 10.4 mph 18.4 mph 0.00 in   Overcast
4:36 PM 33.8 °F 28.6 °F 24.8 °F 70% 29.80 in 7.0 mi Variable 5.8 mph - 0.00 in   Overcast
4:44 PM 33.8 °F 30.8 °F 23.0 °F 65% 29.80 in 10.0 mi Variable 3.5 mph - 0.00 in   Overcast
4:51 PM 33.1 °F 27.7 °F 21.9 °F 64% 29.86 in 10.0 mi Variable 5.8 mph - 0.00 in   Overcast
5:51 PM 30.9 °F 25.2 °F 21.0 °F 67% 29.88 in 10.0 mi Variable 5.8 mph - N/A   Overcast
6:51 PM 30.9 °F 22.2 °F 15.1 °F 52% 29.89 in 10.0 mi NW 10.4 mph 19.6 mph N/A   Overcast
7:51 PM 28.9 °F 21.9 °F 16.0 °F 58% 29.91 in 10.0 mi Variable 6.9 mph - N/A   Overcast
8:51 PM 28.0 °F 24.2 °F 16.0 °F 61% 29.95 in 10.0 mi Variable 3.5 mph - N/A   Overcast
9:51 PM 26.1 °F 19.4 °F 12.0 °F 55% 29.98 in 10.0 mi Variable 5.8 mph 19.6 mph N/A   Overcast
10:51 PM 25.0 °F 15.5 °F 10.9 °F 55% 29.99 in 10.0 mi NW 9.2 mph - N/A   Overcast
11:51 PM 23.0 °F 13.9 °F 8.1 °F 53% 30.01 in 10.0 mi NW 8.1 mph - N/A   Mostly Cloudy